Weather History for KINK - February, 2013

Change the Weather History Date:

Wednesday, February 20, 2013

  Actual Average Record
Temperature  
Mean Temperature 56 °F -  
Max Temperature 70 °F - - ()
Min Temperature 42 °F - - ()
Degree Days  
Heating Degree Days 9    
Growing Degree Days 6 (Base 50)    
Moisture  
Dew Point 44 °F    
Average Humidity 72    
Maximum Humidity 89    
Minimum Humidity 39    
Precipitation  
Precipitation 0.00 in - - ()
Sea Level Pressure  
Sea Level Pressure 29.64 in    
Wind  
Wind Speed 12 mph (ESE)    
Max Wind Speed 23 mph    
Max Gust Speed 29 mph    
Visibility 10 miles    
Events      
T = Trace of Precipitation, MM = Missing Value Source: NWS Daily Summary

Daily Weather History Graph

Daily Weather History Graph

Search for Another Location

Airport or City:

Trip Planner

Search our weather history database for the weather conditions in past years. The results will help you decide how hot, cold, wet, or windy it might be!

Date:

Astronomy

Feb. 20, 2013 Rise Set
Actual Time 7:29 AM CST 6:43 PM CST
Civil Twilight 7:04 AM CST 7:08 PM CST
Nautical Twilight 6:36 AM CST 7:37 PM CST
Astronomical Twilight 6:08 AM CST 8:05 PM CST
Moon 2:17 PM CST (2/20) 3:40 AM CST (2/20)
Length of Visible Light 12h 03m
Length of Day
11h 14m
Waxing Gibbous, 76% of the Moon is Illuminated
Feb 20
Waxing Gibbous
Feb 25
Full
Mar 4
Last Quarter
Mar 11
New
Mar 19
First Quarter

Hourly Weather History & Observations

Time (CST) Temp. Windchill Dew Point Humidity Pressure Visibility Wind Dir Wind Speed Gust Speed Precip Events Conditions
12:53 AM 46.9 °F - 42.1 °F 83% 29.92 in 10.0 mi ESE 5.8 mph - N/A   Overcast
1:53 AM 46.9 °F - 39.9 °F 77% 29.86 in 10.0 mi ESE 13.8 mph - 0.00 in   Overcast
2:53 AM 46.9 °F - 37.0 °F 68% 29.80 in 10.0 mi ESE 13.8 mph - N/A   Clear
3:53 AM 45.0 °F 41.2 °F 37.0 °F 74% 29.81 in 10.0 mi SSE 6.9 mph - N/A   Clear
4:53 AM 43.0 °F 39.5 °F 36.0 °F 76% 29.81 in 10.0 mi ESE 5.8 mph - N/A   Clear
5:53 AM 42.1 °F 36.6 °F 36.0 °F 79% 29.81 in 10.0 mi ESE 9.2 mph - N/A   Clear
6:21 AM 42.8 °F 38.0 °F 37.4 °F 81% 29.83 in 10.0 mi ESE 8.1 mph - N/A   Mostly Cloudy
6:45 AM 42.8 °F 38.0 °F 37.4 °F 81% 29.81 in 10.0 mi East 8.1 mph - N/A   Scattered Clouds
6:53 AM 42.8 °F 38.6 °F 35.6 °F 76% 29.82 in 10.0 mi East 6.9 mph - N/A   Partly Cloudy
7:53 AM 43.0 °F 36.0 °F 39.9 °F 89% 29.78 in 10.0 mi SE 13.8 mph - N/A   Scattered Clouds
8:53 AM 48.0 °F - 44.1 °F 86% 29.75 in 10.0 mi SE 20.7 mph 26.5 mph N/A   Scattered Clouds
9:00 AM 48.2 °F - 44.6 °F 87% 29.79 in 10.0 mi SE 20.7 mph 26.5 mph N/A   Mostly Cloudy
9:53 AM 50.0 °F - 45.0 °F 83% 29.74 in 10.0 mi SSE 20.7 mph 28.8 mph N/A   Mostly Cloudy
10:07 AM 51.8 °F - 44.6 °F 76% 29.78 in 10.0 mi SE 23.0 mph 26.5 mph N/A   Scattered Clouds
10:53 AM 55.0 °F - 46.0 °F 72% 29.71 in 10.0 mi SE 20.7 mph 24.2 mph N/A   Clear
11:53 AM 59.0 °F - 45.0 °F 60% 29.67 in 10.0 mi SE 17.3 mph 25.3 mph N/A   Clear
12:53 PM 63.0 °F - 45.0 °F 52% 29.62 in 10.0 mi SE 18.4 mph 23.0 mph N/A   Clear
1:53 PM 66.9 °F - 45.0 °F 45% 29.55 in 10.0 mi SE 13.8 mph 21.9 mph N/A   Clear
2:53 PM 68.0 °F - 46.0 °F 45% 29.49 in 10.0 mi East 15.0 mph 21.9 mph N/A   Clear
3:53 PM 70.0 °F - 44.1 °F 39% 29.45 in 10.0 mi SE 15.0 mph 24.2 mph N/A   Clear
4:53 PM 68.0 °F - 44.1 °F 42% 29.41 in 10.0 mi East 18.4 mph - N/A   Clear
5:53 PM 64.9 °F - 45.0 °F 48% 29.39 in 10.0 mi ESE 19.6 mph 26.5 mph N/A   Clear
6:53 PM 62.1 °F - 48.0 °F 60% 29.41 in 10.0 mi ESE 18.4 mph 25.3 mph N/A   Clear
7:35 PM 59.0 °F - 51.8 °F 77% 29.52 in 9.0 mi ESE 16.1 mph 25.3 mph N/A   Mostly Cloudy
7:53 PM 59.0 °F - 51.1 °F 75% 29.48 in 9.0 mi ESE 15.0 mph - N/A   Overcast
8:53 PM 59.0 °F - 52.0 °F 78% 29.44 in 9.0 mi East 12.7 mph - N/A   Mostly Cloudy
9:04 PM 57.2 °F - 51.8 °F 82% 29.50 in 8.0 mi East 9.2 mph - N/A   Mostly Cloudy
9:53 PM 57.0 °F - 52.0 °F 83% 29.44 in 7.0 mi Calm Calm - N/A   Overcast
10:21 PM 57.2 °F - 51.8 °F 82% 29.54 in 6.0 mi NNW 9.2 mph - N/A   Haze
10:53 PM 55.0 °F - 50.0 °F 83% 29.49 in 10.0 mi North 18.4 mph - N/A   Overcast
11:14 PM 51.8 °F - 48.2 °F 88% 29.57 in 10.0 mi North 11.5 mph - N/A   Overcast
11:53 PM 51.1 °F - 48.0 °F 89% 29.52 in 10.0 mi North 9.2 mph - N/A   Overcast